Location: Hopewell Observatory
(38.8698°N, 77.6988°W)
Time: 13:54:58
(UTC-04:00)

USA 186 - Pass Details

Date: 26 May 2018
Orbit: 265 x 461 km, 96.9° (Epoch: 14 June)

Event Time Altitude Azimuth Distance (km) Brightness Sun altitude
Rises 21:12:29 0° 184° (S) 2,330 5.2 -8.5°
Reaches altitude 10° 21:14:30 10° 192° (SSW) 1,504 4.3 -8.8°
Maximum altitude 21:17:33 38° 262° (W) 680 3.2 -9.3°
Drops below altitude 10° 21:20:46 10° 333° (NNW) 1,588 5.8 -9.8°
Sets 21:22:57 0° 341° (NNW) 2,483 6.7 -10.1°
